Date String (YYYY-MM-DD hh:mm:ss) UTC,Instrument flags,Ambient pressure (hPa),Sample flow (lpm),Bypass flow (lpm),Sample temperature (°C),Ambient temperature (°C),ASC tube jacket temperature (°C),LED temperature (°C),Box temperature (°C),Sample RH (%),Span deviation,Mass concentration (μg/m³),Mass concentration (μg/m³),Mass concentration (μg/m³)
DateTimeUTC,F1_M11,P_M11,Q1_M11,Q2_M11,T1_M11,T2_M11,T3_M11,T4_M11,T5_M11,U1_M11,ZSPAN_M11,X0_M11,X2_M11,X1_M11
2021-11-30 22:00:00,,0826.2,5.00,0.00,28.3,27.5,00.0,37.3,30.0,11.3,0000.0,0017.42,0005.70,0004.53
2021-11-30 22:01:00,,0826.2,5.00,0.00,28.3,27.5,00.0,37.3,30.0,11.3,0000.0,0017.07,0005.67,0004.52
2021-11-30 22:02:00,,0826.3,4.99,0.00,28.2,27.5,00.0,37.3,29.9,11.3,0000.0,0016.71,0005.65,0004.50
2021-11-30 22:03:00,,0826.2,5.00,0.00,28.2,27.5,00.0,37.3,29.9,11.4,0000.0,0016.41,0005.64,0004.48
2021-11-30 22:04:00,,0826.2,5.00,0.00,28.2,27.5,00.0,37.3,29.9,11.4,0000.0,0015.89,0005.59,0004.47
2021-11-30 22:05:00,,0826.2,5.00,0.00,28.2,27.5,00.0,37.3,29.9,11.4,0000.0,0017.03,0005.60,0004.45
2021-11-30 22:06:00,,0826.2,5.00,0.00,28.2,27.5,00.0,37.3,30.0,11.4,0000.0,0017.68,0005.58,0004.41
2021-11-30 22:07:00,,0826.2,5.02,0.00,28.2,27.5,00.0,37.3,30.0,11.4,0000.0,0017.57,0005.58,0004.38
2021-11-30 22:08:00,,0826.2,4.99,0.00,28.3,27.5,00.0,37.3,30.0,11.4,0000.0,0018.14,0005.55,0004.34
2021-11-30 22:09:00,,0826.2,5.01,0.00,28.3,27.5,00.0,37.3,30.1,11.4,0000.0,0018.52,0005.55,0004.33
2021-11-30 22:10:00,,0826.2,4.98,0.00,28.3,27.5,00.0,37.3,30.1,11.4,0000.0,0017.54,0005.53,0004.32
2021-11-30 22:11:00,,0826.2,5.01,0.00,28.3,27.5,00.0,37.3,30.1,11.4,0000.0,0017.11,0005.51,0004.30
2021-11-30 22:12:00,,0826.2,4.98,0.00,28.3,27.6,00.0,37.3,30.1,11.4,0000.0,0017.47,0005.53,0004.29
2021-11-30 22:13:00,,0826.2,5.02,0.00,28.3,27.6,00.0,37.3,30.1,11.4,0000.0,0017.10,0005.50,0004.28
2021-11-30 22:14:00,,0826.2,4.99,0.00,28.3,27.6,00.0,37.3,30.1,11.4,0000.0,0016.72,0005.42,0004.26
2021-11-30 22:15:00,,0826.2,5.01,0.00,28.3,27.6,00.0,37.3,30.1,11.4,0000.0,0017.00,0005.48,0004.24
2021-11-30 22:16:00,,0826.2,4.99,0.00,28.3,27.6,00.0,37.3,30.1,11.4,0000.0,0016.29,0005.47,0004.24
2021-11-30 22:17:00,,0826.2,5.00,0.00,28.3,27.6,00.0,37.3,30.0,11.4,0000.0,0016.08,0005.49,0004.26
2021-11-30 22:18:00,,0826.2,5.00,0.00,28.3,27.6,00.0,37.3,30.0,11.4,0000.0,0016.70,0005.51,0004.28
2021-11-30 22:19:00,,0826.2,5.01,0.00,28.3,27.5,00.0,37.3,30.0,11.4,0000.0,0017.10,0005.50,0004.29
2021-11-30 22:20:00,,0826.2,4.99,0.00,28.3,27.5,00.0,37.3,30.0,11.4,0000.0,0018.04,0005.46,0004.27
2021-11-30 22:21:00,,0826.3,5.00,0.00,28.3,27.5,00.0,37.3,30.1,11.4,0000.0,0019.04,0005.46,0004.28
2021-11-30 22:22:00,,0826.3,5.01,0.00,28.3,27.6,00.0,37.3,30.1,11.4,0000.0,0019.34,0005.41,0004.28
2021-11-30 22:23:00,,0826.3,4.99,0.00,28.3,27.6,00.0,37.3,30.1,11.4,0000.0,0020.11,0005.39,0004.28
2021-11-30 22:24:00,,0826.3,5.00,0.00,28.3,27.6,00.0,37.3,30.2,11.4,0000.0,0020.92,0005.42,0004.28
2021-11-30 22:25:00,,0826.3,5.01,0.00,28.4,27.6,00.0,37.3,30.2,11.4,0000.0,0021.73,0005.45,0004.29
2021-11-30 22:26:00,,0826.4,4.99,0.00,28.4,27.7,00.0,37.3,30.2,11.4,0000.0,0021.50,0005.42,0004.30
2021-11-30 22:27:00,,0826.4,4.99,0.00,28.4,27.7,00.0,37.3,30.2,11.4,0000.0,0021.98,0005.40,0004.29
2021-11-30 22:28:00,,0826.3,5.01,0.00,28.4,27.7,00.0,37.3,30.2,11.3,0000.0,0021.97,0005.41,0004.30
2021-11-30 22:29:00,,0826.2,4.99,0.00,28.4,27.7,00.0,37.3,30.2,11.3,0000.0,0021.19,0005.42,0004.32
2021-11-30 22:30:00,,0826.3,5.01,0.00,28.4,27.7,00.0,37.3,30.2,11.3,0000.0,0020.36,0005.48,0004.34
2021-11-30 22:31:00,,0826.2,5.01,0.00,28.4,27.7,00.0,37.3,30.3,11.3,0000.0,0019.41,0005.54,0004.38
2021-11-30 22:32:00,,0826.3,5.01,0.00,28.5,27.7,00.0,37.4,30.3,11.3,0000.0,0018.06,0005.55,0004.40
2021-11-30 22:33:00,,0826.2,4.99,0.00,28.5,27.8,00.0,37.4,30.3,11.3,0000.0,0017.68,0005.57,0004.43
2021-11-30 22:34:00,,0826.2,5.01,0.00,28.5,27.8,00.0,37.4,30.2,11.3,0000.0,0016.97,0005.61,0004.46
2021-11-30 22:35:00,,0826.2,4.99,0.00,28.5,27.8,00.0,37.4,30.3,11.3,0000.0,0016.16,0005.64,0004.51
2021-11-30 22:36:00,,0826.2,5.01,0.00,28.5,27.7,00.0,37.4,30.2,11.3,0000.0,0016.07,0005.67,0004.56
2021-11-30 22:37:00,,0826.2,5.00,0.00,28.4,27.7,00.0,37.4,30.2,11.3,0000.0,0016.30,0005.72,0004.59
2021-11-30 22:38:00,,0826.2,5.00,0.00,28.4,27.7,00.0,37.4,30.1,11.3,0000.0,0015.78,0005.78,0004.60
2021-11-30 22:39:00,,0826.2,5.00,0.00,28.4,27.6,00.0,37.4,30.1,11.4,0000.0,0016.35,0005.77,0004.60
2021-11-30 22:40:00,,0826.2,4.99,0.00,28.4,27.6,00.0,37.4,30.1,11.4,0000.0,0016.59,0005.75,0004.58
2021-11-30 22:41:00,,0826.2,5.01,0.00,28.4,27.6,00.0,37.4,30.2,11.4,0000.0,0018.78,0005.78,0004.57
2021-11-30 22:42:00,,0826.1,4.99,0.00,28.4,27.6,00.0,37.4,30.2,11.4,0000.0,0020.42,0005.83,0004.55
2021-11-30 22:43:00,,0826.2,5.02,0.00,28.4,27.6,00.0,37.4,30.2,11.4,0000.0,0020.21,0005.85,0004.55
2021-11-30 22:44:00,,0826.2,5.01,0.00,28.4,27.7,00.0,37.4,30.2,11.4,0000.0,0020.08,0005.88,0004.55
2021-11-30 22:45:00,,0826.2,4.98,0.00,28.4,27.7,00.0,37.4,30.2,11.4,0000.0,0019.89,0005.88,0004.55
2021-11-30 22:46:00,,0826.2,5.01,0.00,28.4,27.7,00.0,37.4,30.2,11.4,0000.0,0020.08,0005.88,0004.52
2021-11-30 22:47:00,,0826.2,5.01,0.00,28.5,27.7,00.0,37.4,30.2,11.4,0000.0,0019.86,0005.89,0004.47
2021-11-30 22:48:00,,0826.0,4.99,0.00,28.5,27.7,00.0,37.4,30.3,11.4,0000.0,0019.46,0005.93,0004.46
2021-11-30 22:49:00,,0826.0,5.02,0.00,28.5,27.7,00.0,37.4,30.2,11.4,0000.0,0019.89,0005.95,0004.49
2021-11-30 22:50:00,,0826.0,4.99,0.00,28.5,27.7,00.0,37.4,30.3,11.4,0000.0,0018.97,0006.00,0004.52
2021-11-30 22:51:00,,0825.9,5.01,0.00,28.5,27.7,00.0,37.4,30.2,11.4,0000.0,0019.21,0006.05,0004.55
2021-11-30 22:52:00,,0825.9,4.98,0.00,28.4,27.7,00.0,37.4,30.2,11.4,0000.0,0018.64,0006.04,0004.61
2021-11-30 22:53:00,,0825.9,5.01,0.00,28.4,27.7,00.0,37.4,30.1,11.4,0000.0,0017.24,0006.01,0004.66
2021-11-30 22:54:00,,0825.9,5.01,0.00,28.4,27.7,00.0,37.4,30.1,11.4,0000.0,0018.70,0006.06,0004.72
2021-11-30 22:55:00,,0825.9,5.00,0.00,28.4,27.7,00.0,37.4,30.1,11.4,0000.0,0019.96,0006.06,0004.75
2021-11-30 22:56:00,,0825.7,5.01,0.00,28.4,27.7,00.0,37.4,30.2,11.4,0000.0,0020.66,0006.11,0004.80
2021-11-30 22:57:00,,0825.7,4.99,0.00,28.4,27.7,00.0,37.4,30.2,11.4,0000.0,0021.53,0006.18,0004.86
2021-11-30 22:58:00,,0825.8,5.01,0.00,28.4,27.7,00.0,37.4,30.2,11.4,0000.0,0021.20,0006.18,0004.92
2021-11-30 22:59:00,,0825.9,4.98,0.00,28.4,27.7,00.0,37.4,30.2,11.4,0000.0,0021.19,0006.17,0004.97
